Location: ?????
(44.4284°N, 135.2222°E)
Time: 10:20:07
(UTC+00:00)

Meteor 1-15 Rocket - Pass Details

Date: 19 May 2025
Orbit: 838 x 906 km, 81.2° (Epoch: 12 June)

Event Time Altitude Azimuth Distance (km) Brightness Sun altitude
Rises 16:16:11 0° 347° (NNW) 3,520 8.3 -23.1°
Reaches altitude 10° 16:18:41 10° 345° (NNW) 2,568 7.4 -22.9°
Maximum altitude 16:24:29 71° 263° (W) 932 4.2 -22.5°
Enters shadow 16:26:01 49° 198° (SSW) 1,123 4.4 -22.4°
